Regional Weather Roundup
Issued by NWS

Home | Current Version | Previous Version | Graphics & Text | Print | Product List | Glossary On
Versions: 1 2 3 4 5 6 7 8 9 10 11 12 13 14 15 16 17 18 19 20 21 22 23 24 25 26 27 28 29 30 31 32 33 34 35 36 37 38 39 40 41 42 43 44 45 46 47 48 49 50
000
ASUS43 KFSD 240802
RWRSD

WEATHER ROUNDUP FOR SOUTH DAKOTA
NATIONAL WEATHER SERVICE SIOUX FALLS SD
300 AM CDT THU MAY 24 2018

NOTE: "FAIR" INDICATES FEW OR NO CLOUDS BELOW 12,000 FEET WITH NO
SIGNIFICANT WEATHER AND/OR OBSTRUCTIONS TO VISIBILITY.


SDZ001>005-009-010-012>017-240900-
NORTHWEST AND NORTH CENTRAL SOUTH DAKOTA

CITY           SKY/WX    TMP DP  RH WIND       PRES   REMARKS
BUFFALO          N/A     57  53  86 SW10      29.81R
FAITH            N/A     58  55  90 S12       29.86R
MOBRIDGE       CLOUDY    63  59  87 NW6       29.77F
$$

SDZ012>016-024>037-041>051-057-063-072>074-240900-
SOUTHWEST AND SOUTH CENTRAL SOUTH DAKOTA

CITY           SKY/WX    TMP DP  RH WIND       PRES   REMARKS
RAPID CTY ARPT PTCLDY    54  48  80 SE7       29.92R
PIERRE         CLOUDY    63  59  87 S9        29.87S
CUSTER         CLEAR     45  39  79 CALM      30.03S
ELLSWORTH AFB  PTCLDY    60  48  64 S7        29.91R
PHILIP         MOCLDY    57  56  96 CALM      29.90R
PINE RIDGE     PTCLDY    56  51  84 VRB3      29.96S
SPEARFISH      FAIR      59  43  55 S9        29.91S
WINNER         RAIN      67  54  63 S21       30.00R
$$

SDZ004>011-016>023-039-040-240900-
NORTHEAST SOUTH DAKOTA

CITY           SKY/WX    TMP DP  RH WIND       PRES   REMARKS
ABERDEEN       MOCLDY    69  61  75 S8        29.89R
WATERTOWN      CLOUDY    69  61  75 SE13      29.94S
BROOKINGS      CLOUDY    71  61  70 SE13      29.98R
SISSETON         N/A     65  65 100 S9        29.89F
$$

SDZ017-020-022-023-036>040-048>070-240900-
SOUTHEAST SOUTH DAKOTA

CITY           SKY/WX    TMP DP  RH WIND       PRES   REMARKS
SIOUX FALLS    CLOUDY    74  63  68 S12       29.98S
HURON          CLOUDY    71  60  68 S10       29.90S
CHAMBERLAIN    CLOUDY    70  59  68 W9G18     29.93F
MITCHELL       CLOUDY    73  61  65 S14G23    29.93S
YANKTON        PTCLDY    73  62  68 S13       29.97S
$$

ABBREVIATIONS USED IN REMARKS
   TC - TEMPERATURE IN CELSIUS
  WCI - WIND CHILL INDEX
   HX - HEAT INDEX
  VSB - VISIBILITY





USA.gov is the U.S. government's official web portal to all federal, state and local government web resources and services.